Wetbulb
57.36 54.68 55.78 53.49 46.75 44.40 40.45 43.14 44.85 43.51 43.79 44.27 45.40 45.40 43.87 42.17 43.17 44.47 48.26 48.76 49.58 49.78 50.63 52.67 57.35 58.53 58.95 59.21 59.43 59.84 59.84 60.36 60.81 60.96 61.06 61.18 61.24 61.16 61.30 61.25 61.16 61.52 62.46 64.03 65.65 67.06 68.24 68.44 68.86
54.06 55.38 54.14 48.86 42.48 39.44 40.65 44.66 42.58 44.56 43.91 44.95 44.49 44.70 42.67 39.70 44.34 44.91 46.18 48.20 48.77 48.95 49.49 51.67 56.63 58.02 58.53 58.69 59.13 59.11 59.61 59.91 60.06 60.18 60.26 60.40 60.49 60.50 60.57 60.46 60.34 60.66 61.19 61.79 62.59 64.02 66.07 67.30 67.39
54.29 50.87 48.84 44.16 39.00 38.72 40.64 44.62 43.66 43.01 44.64 45.08 42.20 43.41 42.45 40.42 44.48 44.42 46.55 47.78 48.37 47.97 48.82 51.30 55.71 57.08 57.62 57.98 58.13 58.35 58.17 58.78 58.89 58.88 59.19 59.51 59.70 59.64 59.68 59.76 59.72 59.95 60.38 60.85 61.28 61.59 62.08 63.59 65.29
51.55 48.69 44.06 39.17 36.53 38.45 42.86 44.06 43.07 42.67 44.44 44.43 42.90 39.93 42.75 44.78 44.21 45.00 46.96 47.11 47.12 47.18 47.79 49.97 54.49 55.88 56.50 56.77 57.00 56.91 57.22 57.71 57.86 57.75 58.13 58.32 58.05 58.48 58.35 58.61 58.85 58.93 59.30 60.18 60.82 60.70 60.51 60.87 62.28
48.14 44.98 39.00 35.93 36.86 38.96 43.13 45.27 44.22 43.58 43.30 43.03 43.44 39.34 39.61 43.08 44.52 45.37 45.76 46.56 45.98 46.33 47.33 47.91 52.76 53.89 54.96 55.48 55.88 56.37 56.69 57.21 57.17 57.38 57.20 57.06 56.82 56.56 57.08 57.04 57.17 57.55 58.17 58.78 59.04 59.32 59.32 59.55 59.74
45.82 44.03 38.61 36.20 36.58 38.38 42.09 44.72 44.29 43.07 42.69 41.84 40.71 39.11 39.94 43.85 43.92 43.95 45.33 45.53 45.99 45.95 46.80 47.27 48.90 51.40 52.90 53.79 54.66 55.13 55.87 55.97 55.94 56.13 56.15 55.61 55.51 55.76 55.92 55.98 55.99 56.93 57.36 57.14 57.09 57.27 57.44 57.88 58.53
43.74 40.13 36.18 34.83 35.39 37.98 40.09 43.57 42.73 41.90 40.90 41.30 42.15 38.45 40.27 41.98 43.07 44.04 44.32 45.07 45.76 46.10 46.26 46.58 46.95 48.19 49.20 51.02 52.87 53.32 54.40 54.47 54.45 54.35 54.35 53.91 53.58 54.16 54.62 54.71 55.49 56.58 56.47 56.56 56.40 56.07 56.42 56.90 57.83
41.32 38.74 34.73 34.24 34.64 37.58 38.70 40.45 41.90 42.00 40.20 41.86 41.91 38.70 38.80 41.83 42.97 43.90 44.41 44.59 45.05 45.42 45.62 45.61 46.50 47.03 47.58 48.83 50.86 51.78 52.61 52.79 52.42 52.03 51.94 50.97 50.71 51.60 52.52 52.47 54.29 56.32 56.36 56.16 56.26 55.96 56.05 56.29 56.49
43.63 38.26 34.46 35.61 34.93 37.90 37.61 39.21 39.92 40.61 39.32 39.87 40.12 40.00 40.47 41.53 42.92 42.97 42.63 43.21 43.85 44.84 44.86 45.40 45.53 46.48 47.31 49.64 49.21 49.46 50.25 50.18 49.80 49.40 49.17 48.74 48.94 49.62 51.11 51.42 53.67 55.18 55.47 55.75 56.11 56.41 56.68 55.64 54.73
40.42 37.85 37.80 37.77 37.20 36.92 36.98 38.76 38.88 39.17 38.02 38.17 38.79 39.75 40.76 41.43 41.46 40.93 40.83 41.26 42.05 42.69 43.57 44.62 45.03 45.78 46.84 48.84 48.34 48.46 48.29 47.91 47.69 47.26 46.96 47.40 48.48 48.65 49.44 50.41 52.43 53.31 53.63 54.37 55.21 55.64 55.06 53.91 55.08
38.11 37.45 36.40 36.44 37.44 37.73 37.08 36.63 38.37 37.23 36.32 38.30 37.83 38.36 39.30 39.81 40.24 40.34 40.61 41.34 41.44 42.26 43.21 43.94 44.50 45.64 46.32 47.06 47.72 47.61 47.24 46.02 46.03 45.54 45.31 46.06 46.80 47.25 47.65 49.78 49.72 49.92 51.12 52.37 52.81 52.95 52.77 53.64 54.06
37.00 35.98 36.51 37.92 37.94 37.16 36.44 37.06 36.32 36.33 38.48 39.52 39.66 39.77 38.97 38.83 39.37 39.99 40.71 41.13 41.53 41.82 42.40 43.46 44.28 45.23 46.13 46.57 45.87 45.73 45.18 44.07 43.35 43.14 43.19 43.49 43.89 44.65 46.06 47.23 47.38 47.99 49.03 50.08 51.75 53.92 54.25 54.53 55.63
36.14 35.07 36.27 36.26 36.93 36.08 37.23 35.17 36.55 35.66 37.55 38.18 38.21 38.95 38.31 38.33 39.26 40.27 41.33 41.46 41.58 41.19 41.99 43.04 44.25 44.61 45.34 44.98 44.51 43.94 42.62 42.21 41.79 41.37 41.26 41.78 41.97 42.03 44.01 44.27 44.64 45.55 46.96 47.67 49.12 50.99 51.60 52.13 53.80
34.58 35.19 34.71 35.79 35.79 36.02 35.58 34.38 35.99 35.28 35.85 36.20 37.58 37.25 37.28 38.33 39.20 39.81 40.65 40.52 40.73 41.13 41.78 43.10 43.65 44.08 44.20 43.39 42.74 42.12 41.74 40.60 40.00 39.58 39.24 40.05 40.36 40.23 41.03 40.93 41.11 41.89 44.03 45.60 47.99 48.62 48.55 49.26 50.73
34.85 33.27 32.89 33.49 34.61 34.31 35.58 33.39 33.42 34.85 35.92 35.46 36.05 36.11 36.81 38.19 39.42 39.53 40.58 40.32 40.50 40.67 41.23 42.61 43.89 43.57 42.16 41.45 41.12 40.11 39.67 39.14 38.00 37.86 38.05 38.35 39.02 38.88 38.97 38.65 38.53 39.14 40.53 42.61 46.06 46.57 46.95 46.87 48.82
32.14 30.60 29.07 30.77 34.07 33.81 34.07 30.36 30.98 33.93 34.90 34.38 34.53 34.38 35.77 37.79 38.93 39.63 40.42 40.44 39.93 40.26 40.25 41.30 43.00 42.44 41.24 39.66 39.09 38.85 38.29 37.81 37.08 36.84 36.86 36.94 37.49 37.83 37.65 36.91 36.72 37.63 38.12 39.24 41.95 44.50 43.65 44.13 46.34
28.88 26.39 26.63 29.37 33.46 33.00 31.95 30.30 31.45 33.47 33.61 33.69 33.35 33.50 34.64 36.16 37.75 38.97 40.12 40.17 39.83 39.60 39.93 40.17 41.19 41.41 40.90 39.64 38.37 37.75 37.37 36.69 36.19 35.78 35.46 35.61 36.16 36.59 36.44 35.79 35.85 36.25 35.89 36.21 38.18 40.90 41.52 40.99 42.57
27.53 26.07 26.79 27.21 30.98 31.45 29.98 30.02 31.67 33.37 33.01 33.92 33.51 33.18 33.58 35.25 37.25 38.84 39.51 39.90 39.63 38.36 38.44 39.13 40.00 40.58 41.00 40.77 39.70 37.97 36.32 35.55 35.54 34.70 34.40 34.69 35.16 35.66 35.69 35.45 35.16 35.37 34.50 34.31 36.10 37.91 39.77 39.04 39.82
29.64 28.44 26.92 27.23 30.52 29.97 28.72 29.59 33.26 32.82 32.69 33.35 33.55 33.84 33.57 34.36 37.53 39.03 39.44 39.41 38.34 37.33 37.29 37.59 38.38 38.37 39.85 39.18 38.62 38.40 34.30 33.92 33.74 34.22 33.81 33.76 34.20 34.68 34.38 34.51 34.38 34.52 33.28 32.74 34.35 36.58 36.69 37.36 38.37
29.94 28.89 27.06 28.66 30.37 30.57 28.07 30.30 32.98 33.31 33.06 34.40 35.72 35.06 34.92 33.75 35.95 37.49 38.27 38.42 37.80 36.60 36.42 36.54 36.71 37.09 37.77 38.07 37.80 37.21 36.36 34.72 33.74 33.57 33.10 32.90 33.01 33.59 33.81 33.44 33.12 33.15 32.93 32.29 32.23 33.79 35.11 35.93 36.94
29.09 28.27 27.49 28.56 29.42 28.81 28.08 28.95 30.91 33.76 33.10 34.97 36.47 36.43 35.74 34.76 35.34 36.84 37.12 37.49 36.83 35.70 35.82 36.06 36.03 36.12 36.37 37.55 37.34 36.18 34.70 33.79 32.38 31.73 31.49 31.75 32.18 32.58 32.96 32.82 32.60 32.57 32.46 31.68 31.25 32.51 32.90 32.26 34.93
28.09 31.14 30.50 30.21 28.55 25.44 28.00 24.27 30.07 34.00 34.41 34.35 34.40 34.47 33.99 34.15 36.34 37.35 36.98 36.39 35.20 34.87 35.77 36.12 36.31 36.18 35.81 35.18 33.69 32.73 31.68 30.68 31.15 31.09 30.95 31.21 31.59 31.45 32.19 32.22 32.07 31.94 31.95 31.19 31.47 31.81 32.46 32.98 31.22
28.90 32.46 30.87 29.93 26.86 25.01 25.88 22.89 30.09 32.82 34.61 34.15 34.58 34.46 32.74 34.05 36.30 36.82 37.27 37.23 35.16 34.91 34.76 35.31 35.43 35.30 34.83 34.06 33.18 32.04 30.63 30.91 31.09 30.55 29.86 30.20 30.68 30.80 30.99 31.37 31.43 31.25 31.43 31.25 30.83 30.52 30.37 30.95 31.14
33.54 31.48 29.65 26.84 26.34 21.74 25.68 25.05 30.78 33.17 33.37 33.20 33.62 33.68 32.66 33.41 36.08 37.55 37.73 36.24 34.31 34.77 34.53 34.98 34.61 33.97 34.20 32.89 32.31 31.66 30.35 29.68 29.66 29.46 29.17 29.24 29.69 29.98 30.14 30.60 30.80 30.98 30.85 30.58 30.84 30.75 30.02 29.86 29.81
30.98 28.48 22.22 21.37 19.97 22.46 24.11 23.13 31.35 32.75 33.63 32.80 32.93 33.10 32.00 34.37 35.33 36.16 35.57 34.34 33.83 33.95 34.03 34.27 33.84 32.52 32.91 32.40 31.96 31.74 30.97 30.48 29.76 29.23 28.96 28.64 28.56 28.62 28.76 29.66 29.83 29.98 30.39 30.49 30.68 30.07 29.36 29.34 28.79
28.51 28.87 24.46 18.01 20.14 21.80 24.34 23.21 32.15 32.51 33.11 33.33 32.84 32.28 33.33 34.06 35.45 35.72 35.85 34.71 34.04 34.23 34.04 34.53 32.99 32.00 32.35 32.20 31.75 31.53 31.45 30.59 30.27 29.77 29.30 28.76 28.61 28.64 29.05 29.18 29.43 29.51 29.80 29.99 30.36 29.67 29.24 29.03 28.78
28.41 26.01 29.82 22.70 12.71 20.94 25.62 29.70 34.53 32.02 31.62 32.43 32.33 32.41 32.30 33.21 34.47 34.67 35.05 34.44 34.33 34.47 34.05 33.43 32.61 32.15 32.09 31.72 31.15 30.36 30.30 29.79 29.11 29.33 29.63 29.44 29.70 29.42 28.59 28.61 28.57 28.66 28.86 28.97 29.04 28.62 28.01 28.08 27.99
28.92 30.39 25.13 23.80 16.13 15.51 22.99 23.84 28.44 29.67 30.83 31.11 30.59 31.42 32.08 33.14 34.07 34.62 34.38 34.28 34.86 34.99 34.67 33.50 32.99 31.89 31.65 31.29 30.94 29.97 29.48 29.72 29.62 29.53 28.77 28.68 28.82 28.76 28.26 28.00 28.00 27.96 28.01 27.95 28.02 27.64 27.67 27.22 27.09
27.09 25.82 26.69 27.08 25.87 20.77 18.77 25.28 29.26 29.63 29.63 30.71 31.18 32.61 32.37 32.93 34.02 34.44 34.72 34.83 35.09 34.91 34.08 33.03 32.19 31.37 31.05 31.06 30.48 29.79 29.20 29.16 29.33 28.88 28.59 28.26 28.41 28.03 27.46 27.36 27.30 27.03 26.67 26.93 26.75 26.70 26.74 26.28 26.34
28.17 26.58 27.85 25.04 22.58 22.13 23.15 25.88 31.87 30.20 30.31 31.40 32.60 33.24 32.56 33.52 34.05 34.13 34.53 34.23 34.06 33.92 33.41 32.44 31.64 31.08 31.26 30.57 29.96 29.58 29.26 28.79 28.13 27.95 28.12 28.46 27.77 28.04 27.37 27.15 26.81 26.47 26.45 26.22 25.80 25.39 25.63 25.30 25.14
MSLP
1014.40 1014.28 1014.28 1014.55 1016.13 1017.12 1018.30 1019.04 1019.09 1019.45 1019.68 1019.97 1019.97 1020.02 1020.73 1021.45 1022.20 1023.29 1023.59 1023.70 1023.61 1023.58 1023.36 1022.91 1022.36 1022.08 1021.73 1021.33 1020.87 1020.64 1020.40 1019.90 1019.54 1019.44 1019.10 1018.86 1018.49 1018.21 1017.88 1017.65 1017.30 1017.00 1016.69 1016.19 1015.78 1015.32 1014.96 1014.63 1014.36
1014.47 1014.37 1014.65 1015.67 1017.01 1018.18 1019.08 1019.26 1019.46 1019.60 1020.00 1020.25 1020.48 1020.84 1021.44 1022.34 1022.76 1023.25 1023.67 1024.04 1024.10 1023.97 1023.51 1023.10 1022.62 1022.26 1021.76 1021.41 1021.04 1020.81 1020.55 1020.08 1019.91 1019.72 1019.39 1018.93 1018.66 1018.23 1018.05 1017.79 1017.32 1017.04 1016.71 1016.39 1015.98 1015.55 1015.08 1014.64 1014.42
1014.43 1014.46 1015.52 1016.87 1018.48 1019.08 1019.36 1019.59 1020.04 1020.22 1020.31 1020.64 1021.31 1021.85 1022.36 1022.89 1023.22 1023.77 1024.35 1024.29 1024.16 1023.98 1023.68 1023.42 1022.90 1022.40 1021.97 1021.50 1021.20 1020.95 1020.74 1020.43 1020.25 1019.99 1019.71 1019.32 1018.87 1018.41 1018.13 1017.84 1017.44 1017.05 1016.68 1016.31 1015.95 1015.64 1015.25 1014.86 1014.47
1014.64 1015.30 1017.01 1017.69 1019.22 1019.69 1019.80 1019.65 1019.81 1020.38 1020.82 1020.66 1021.27 1022.31 1023.03 1023.56 1023.80 1024.25 1024.56 1024.47 1024.25 1024.24 1024.08 1023.69 1023.08 1022.66 1022.07 1021.78 1021.60 1021.40 1020.96 1020.65 1020.45 1020.07 1019.75 1019.36 1018.99 1018.69 1018.41 1017.97 1017.52 1017.14 1016.73 1016.28 1015.85 1015.51 1015.21 1014.88 1014.43
1015.18 1016.24 1017.63 1018.90 1019.70 1019.92 1020.00 1020.07 1020.26 1020.60 1020.78 1021.14 1021.66 1022.57 1023.39 1023.99 1024.39 1024.62 1024.59 1024.60 1024.55 1024.48 1024.26 1023.93 1023.34 1022.85 1022.49 1022.16 1022.01 1021.58 1021.24 1020.95 1020.62 1020.29 1019.95 1019.55 1019.22 1018.92 1018.50 1018.16 1017.77 1017.34 1016.93 1016.54 1016.05 1015.74 1015.43 1015.00 1014.54
1016.00 1016.96 1018.42 1019.48 1019.91 1020.11 1020.17 1020.17 1020.27 1020.60 1021.10 1021.67 1022.06 1022.84 1023.73 1024.16 1024.49 1024.86 1024.83 1024.87 1024.77 1024.46 1024.22 1023.95 1023.58 1023.21 1022.91 1022.68 1022.31 1021.94 1021.54 1021.26 1020.98 1020.63 1020.36 1019.96 1019.56 1019.16 1018.80 1018.36 1017.97 1017.38 1016.90 1016.41 1016.05 1015.67 1015.30 1014.90 1014.36
1016.39 1017.75 1019.25 1019.74 1020.20 1020.24 1020.15 1020.33 1020.68 1021.15 1021.57 1021.90 1022.20 1023.24 1024.09 1024.49 1024.75 1024.85 1024.97 1024.96 1024.77 1024.61 1024.44 1024.15 1023.90 1023.62 1023.42 1023.23 1022.68 1022.26 1021.90 1021.62 1021.34 1021.01 1020.60 1020.24 1019.85 1019.42 1019.00 1018.68 1018.04 1017.28 1016.79 1016.43 1015.99 1015.60 1015.22 1014.63 1014.13
1016.73 1018.08 1019.60 1019.97 1020.25 1020.10 1020.24 1020.54 1020.81 1021.16 1021.82 1022.23 1022.58 1023.22 1023.88 1024.08 1024.56 1024.81 1024.92 1024.95 1024.87 1024.81 1024.63 1024.40 1024.06 1023.81 1023.56 1023.23 1022.89 1022.62 1022.28 1021.96 1021.67 1021.34 1020.89 1020.49 1020.10 1019.75 1019.28 1018.89 1018.21 1017.53 1016.91 1016.43 1015.88 1015.33 1015.06 1014.61 1014.20
1016.72 1018.17 1019.67 1019.87 1020.28 1019.97 1020.44 1020.80 1021.33 1021.68 1022.10 1022.64 1022.97 1023.33 1023.81 1024.16 1024.52 1024.72 1025.02 1025.10 1025.03 1024.82 1024.76 1024.56 1024.29 1023.92 1023.54 1023.09 1023.00 1022.85 1022.56 1022.28 1021.94 1021.50 1021.12 1020.60 1020.20 1019.90 1019.44 1019.23 1018.35 1017.70 1017.20 1016.73 1016.15 1015.42 1014.90 1014.41 1014.07
1017.36 1018.59 1019.14 1019.31 1019.60 1019.99 1020.51 1020.83 1021.33 1021.85 1022.29 1022.78 1023.28 1023.76 1024.06 1024.37 1024.65 1024.89 1025.20 1025.26 1025.18 1025.15 1025.04 1024.91 1024.56 1024.17 1023.75 1023.27 1023.25 1023.02 1022.69 1022.44 1022.15 1021.80 1021.33 1020.86 1020.46 1020.22 1019.91 1019.33 1018.67 1018.08 1017.52 1016.80 1016.15 1015.54 1015.09 1014.53 1013.92
1018.08 1018.88 1019.25 1019.54 1019.75 1020.02 1020.55 1021.08 1021.39 1021.81 1022.33 1022.22 1022.82 1023.48 1024.12 1024.59 1024.92 1025.14 1025.29 1025.39 1025.52 1025.54 1025.35 1025.04 1024.69 1024.33 1024.02 1023.75 1023.55 1023.32 1022.95 1022.66 1022.34 1022.07 1021.83 1021.46 1020.96 1020.61 1020.16 1019.44 1018.95 1018.47 1017.72 1017.00 1016.30 1015.71 1015.00 1014.54 1014.00
1018.61 1019.32 1019.44 1019.76 1019.94 1020.44 1020.88 1021.07 1021.47 1021.92 1021.69 1021.94 1022.42 1023.14 1024.04 1024.64 1025.08 1025.27 1025.36 1025.65 1025.72 1025.65 1025.52 1025.22 1024.87 1024.54 1024.25 1023.92 1023.71 1023.63 1023.41 1023.26 1022.82 1022.68 1022.47 1022.15 1021.80 1021.29 1020.69 1019.94 1019.40 1018.93 1018.28 1017.44 1016.66 1015.96 1015.19 1014.58 1014.00
1018.98 1019.72 1019.95 1020.11 1020.24 1020.49 1020.85 1021.33 1021.65 1021.69 1021.79 1022.21 1022.78 1023.53 1024.18 1024.79 1025.12 1025.43 1025.73 1025.89 1025.90 1025.84 1025.69 1025.43 1025.10 1024.82 1024.55 1024.33 1024.21 1024.08 1024.08 1023.91 1023.76 1023.61 1023.41 1023.00 1022.46 1021.94 1021.19 1020.68 1020.12 1019.58 1018.90 1018.04 1017.40 1016.65 1015.82 1015.17 1014.47
1019.80 1020.00 1020.29 1020.37 1020.50 1020.71 1020.94 1021.35 1021.70 1021.78 1022.23 1022.93 1023.31 1023.84 1024.47 1024.92 1025.22 1025.60 1025.91 1026.11 1026.13 1026.04 1025.81 1025.58 1025.37 1025.18 1024.96 1024.86 1024.84 1024.88 1024.66 1024.56 1024.32 1024.26 1024.15 1023.63 1023.04 1022.59 1021.84 1021.39 1020.89 1020.20 1019.62 1018.87 1018.08 1017.48 1016.80 1016.09 1015.43
1019.92 1020.23 1020.39 1020.58 1020.69 1021.00 1021.06 1021.57 1021.56 1022.00 1022.59 1023.31 1023.87 1024.30 1024.65 1024.93 1025.26 1025.55 1025.82 1026.03 1026.08 1026.12 1026.00 1025.71 1025.42 1025.48 1025.32 1025.36 1025.42 1025.45 1025.32 1025.07 1024.90 1024.77 1024.53 1024.04 1023.49 1023.19 1022.52 1022.06 1021.56 1021.03 1020.24 1019.60 1018.56 1017.82 1017.24 1016.72 1016.07
1020.27 1020.46 1020.84 1020.76 1020.86 1021.23 1021.43 1021.30 1021.68 1022.41 1022.92 1023.60 1024.04 1024.36 1024.60 1024.87 1025.15 1025.51 1025.77 1025.92 1026.01 1025.96 1025.97 1025.83 1025.71 1025.76 1025.77 1025.77 1025.86 1025.95 1025.92 1025.67 1025.50 1025.27 1024.96 1024.62 1024.17 1023.78 1023.19 1022.64 1022.34 1021.72 1020.95 1020.35 1019.44 1018.71 1018.10 1017.70 1017.11
1020.76 1020.69 1020.91 1020.81 1021.07 1021.43 1021.86 1021.64 1021.82 1022.50 1023.12 1023.52 1023.72 1024.00 1024.35 1024.71 1025.12 1025.35 1025.48 1025.69 1025.91 1025.92 1025.88 1025.87 1025.88 1025.90 1026.05 1026.16 1026.20 1026.31 1026.39 1026.23 1026.15 1025.80 1025.60 1025.21 1024.78 1024.33 1023.86 1023.38 1022.88 1022.32 1021.60 1021.03 1020.60 1019.88 1019.33 1018.78 1018.21
1020.29 1020.53 1020.62 1020.98 1021.40 1021.82 1022.26 1021.51 1021.85 1022.30 1022.79 1022.77 1023.00 1023.39 1023.82 1024.11 1024.42 1025.04 1025.49 1025.68 1025.81 1025.94 1026.01 1026.02 1025.96 1026.05 1026.17 1026.36 1026.40 1026.61 1026.68 1026.82 1026.86 1026.46 1026.19 1025.89 1025.37 1024.94 1024.41 1023.97 1023.47 1022.98 1022.29 1021.90 1021.36 1020.77 1020.36 1019.90 1019.29
1019.11 1019.86 1020.33 1020.87 1021.56 1021.99 1022.07 1021.74 1020.84 1021.36 1021.79 1021.69 1021.69 1022.01 1022.48 1023.45 1024.31 1025.02 1025.44 1025.72 1025.91 1026.06 1026.21 1026.26 1026.22 1026.18 1026.02 1026.33 1026.57 1026.77 1027.31 1027.41 1027.47 1027.15 1026.92 1026.49 1025.99 1025.51 1025.10 1024.59 1024.22 1023.74 1023.39 1023.15 1022.39 1021.69 1021.08 1020.29 1019.93
1019.02 1019.53 1020.31 1020.97 1021.64 1022.14 1021.95 1021.02 1020.16 1019.80 1019.43 1018.97 1019.23 1020.29 1021.60 1023.07 1024.00 1024.78 1025.30 1025.72 1025.82 1025.95 1026.21 1026.35 1026.41 1026.46 1026.32 1026.37 1026.80 1027.08 1027.60 1027.92 1028.05 1027.81 1027.55 1027.28 1026.78 1026.33 1025.85 1025.45 1025.07 1024.78 1024.22 1023.84 1023.68 1023.24 1022.48 1021.96 1021.46
1019.23 1019.60 1020.14 1020.89 1021.68 1022.27 1022.20 1020.83 1019.52 1018.04 1017.90 1017.96 1019.17 1020.01 1020.99 1022.02 1023.28 1024.29 1024.97 1025.51 1025.86 1026.13 1026.36 1026.47 1026.54 1026.54 1026.58 1026.63 1026.93 1027.13 1027.65 1028.13 1028.30 1028.16 1028.01 1027.94 1027.42 1026.97 1026.75 1026.30 1025.92 1025.68 1025.28 1025.06 1024.94 1024.71 1024.21 1023.78 1023.18
1019.70 1019.44 1020.03 1021.00 1021.90 1022.83 1022.59 1021.42 1019.36 1017.72 1017.54 1018.03 1018.41 1019.19 1020.02 1021.14 1022.34 1023.42 1024.34 1025.00 1025.59 1025.95 1026.42 1026.66 1026.80 1026.87 1026.87 1026.67 1027.20 1027.16 1027.75 1028.50 1028.88 1028.90 1028.90 1028.57 1028.08 1027.72 1027.38 1027.17 1026.74 1026.67 1026.37 1025.92 1025.97 1025.70 1025.30 1024.66 1024.44
1019.89 1020.07 1020.84 1021.59 1022.54 1023.06 1023.10 1022.50 1018.95 1018.08 1017.66 1018.24 1018.60 1019.01 1019.84 1020.73 1021.43 1022.38 1023.34 1024.18 1025.22 1025.79 1026.27 1026.65 1026.90 1027.01 1027.15 1027.02 1027.54 1027.66 1028.02 1028.64 1028.99 1029.20 1029.04 1028.77 1028.66 1028.42 1028.12 1027.76 1027.53 1027.49 1027.36 1026.93 1026.74 1026.48 1026.16 1025.87 1025.52
1020.31 1020.81 1021.92 1022.73 1023.27 1023.61 1023.09 1022.67 1019.62 1018.44 1018.51 1018.72 1019.11 1019.81 1020.35 1021.17 1021.88 1022.63 1023.51 1024.16 1025.10 1025.91 1026.57 1026.83 1027.01 1027.23 1027.50 1027.43 1027.91 1028.10 1028.04 1028.65 1029.06 1029.20 1029.20 1029.09 1029.06 1028.89 1028.68 1028.20 1028.09 1028.11 1028.04 1027.70 1027.45 1027.47 1027.00 1026.96 1026.64
1020.68 1021.22 1022.66 1023.76 1024.14 1023.93 1023.23 1022.90 1019.24 1018.54 1018.49 1019.15 1019.88 1020.20 1020.86 1021.62 1022.13 1022.80 1023.66 1024.42 1024.91 1025.51 1026.07 1026.56 1026.95 1027.37 1027.72 1027.95 1028.42 1028.75 1028.48 1029.10 1029.39 1029.47 1029.52 1029.52 1029.49 1029.41 1029.34 1028.78 1028.57 1028.76 1028.79 1028.34 1027.99 1027.94 1027.64 1027.65 1027.36
1021.09 1021.13 1021.78 1023.04 1024.37 1024.09 1023.55 1021.85 1018.78 1018.43 1018.65 1019.24 1020.03 1020.70 1021.35 1022.15 1022.82 1023.36 1023.70 1024.15 1024.64 1025.21 1025.70 1026.22 1026.69 1027.28 1027.82 1028.16 1028.59 1029.27 1029.41 1029.90 1030.29 1030.16 1030.00 1029.85 1029.77 1029.92 1029.80 1029.40 1029.17 1029.16 1029.14 1028.76 1028.43 1028.26 1028.15 1028.06 1027.91
1021.58 1021.53 1021.64 1022.91 1024.73 1024.11 1022.40 1020.40 1018.47 1018.43 1018.84 1019.38 1020.20 1021.04 1021.61 1022.01 1022.36 1023.10 1023.81 1024.14 1024.59 1025.18 1025.69 1026.19 1026.66 1027.27 1027.81 1028.20 1028.54 1029.04 1029.22 1029.51 1029.94 1030.20 1030.62 1030.86 1030.44 1030.23 1030.36 1030.10 1029.82 1029.44 1029.49 1029.18 1029.02 1028.70 1028.72 1028.46 1028.30
1021.59 1021.55 1021.97 1022.56 1023.77 1023.64 1022.29 1020.81 1018.96 1018.58 1018.82 1019.56 1020.26 1020.98 1021.66 1022.08 1022.38 1022.48 1022.89 1023.73 1024.64 1025.21 1025.64 1026.24 1026.64 1027.08 1027.80 1028.22 1028.47 1028.75 1029.12 1029.35 1029.78 1029.92 1030.18 1030.48 1030.82 1030.82 1030.63 1030.38 1030.37 1029.97 1029.88 1029.70 1029.51 1029.17 1029.33 1028.89 1028.78
1022.20 1021.80 1022.02 1022.18 1022.50 1022.54 1022.28 1020.13 1018.32 1018.38 1018.80 1019.41 1020.07 1020.43 1021.04 1021.49 1021.86 1022.26 1022.60 1023.10 1023.78 1024.79 1025.58 1026.19 1026.77 1027.35 1027.96 1028.20 1028.71 1029.03 1029.30 1029.39 1029.84 1030.00 1030.31 1030.41 1030.37 1030.80 1031.15 1030.94 1030.81 1030.39 1030.34 1030.25 1030.13 1029.80 1029.71 1029.31 1029.26
1022.16 1021.80 1021.60 1021.97 1022.69 1022.69 1022.01 1019.59 1018.03 1018.22 1018.72 1019.24 1019.68 1020.11 1020.52 1021.06 1021.61 1022.21 1022.81 1023.27 1023.87 1024.40 1025.13 1025.81 1026.49 1027.16 1027.92 1028.39 1028.59 1029.19 1029.53 1029.61 1029.95 1030.13 1030.46 1030.45 1030.54 1030.86 1031.05 1031.23 1031.09 1031.08 1030.70 1030.72 1030.50 1030.45 1030.30 1029.76 1029.69
Wind_Speed
5 3 1 4 4 5 1 1 1 3 2 1 3 3 6 5 2 1 4 7 8 8 10 11 17 16 15 15 15 16 15 15 16 16 16 17 17 17 17 18 17 18 18 19 19 20 20 20 19
3 1 4 3 5 3 1 0 3 1 5 5 5 3 5 3 2 3 2 6 6 7 9 10 15 15 15 14 15 15 16 16 16 16 17 17 17 17 17 17 17 18 18 19 20 21 21 20 19
1 3 4 5 3 3 3 3 5 3 3 3 4 4 1 3 3 3 2 4 7 10 10 10 14 15 14 14 16 16 15 15 15 15 16 17 18 18 18 18 18 18 18 18 19 19 20 21 21
2 4 5 5 3 1 1 2 4 6 3 4 3 6 3 2 1 3 4 5 7 9 9 10 13 14 14 14 16 14 14 14 14 15 16 17 18 19 18 19 19 19 19 19 20 19 20 20 20
4 3 5 5 1 1 1 2 5 4 2 3 2 4 3 2 6 5 6 7 8 7 8 8 14 15 14 14 13 14 14 14 15 16 16 17 17 17 19 19 19 19 19 20 20 20 20 22 21
4 3 5 3 1 1 1 3 3 2 2 2 3 5 3 3 3 3 6 6 7 8 9 9 13 14 13 13 14 13 14 14 15 15 17 17 17 18 18 19 18 18 18 18 19 19 20 20 21
6 4 4 4 5 1 5 5 5 4 3 1 6 4 2 4 5 5 6 6 7 7 8 9 9 9 10 9 12 12 13 14 16 16 17 17 17 18 18 18 19 20 20 20 20 19 19 20 20
5 6 4 2 4 4 5 4 2 2 2 2 1 3 2 3 7 5 6 7 7 7 7 8 7 7 6 5 11 12 14 15 15 16 17 17 17 19 19 20 20 20 21 21 19 19 18 19 21
3 6 2 5 6 2 4 4 1 1 5 1 1 2 2 6 5 3 2 4 5 8 8 8 7 7 7 5 8 10 12 13 14 14 17 13 11 14 17 19 20 21 21 21 20 19 18 15 14
5 4 8 5 5 3 4 2 7 4 2 1 1 2 4 3 3 3 3 5 7 8 8 7 7 7 7 6 7 7 8 7 9 11 13 10 11 12 14 14 20 19 18 19 19 19 19 13 7
1 4 3 2 1 3 7 2 2 6 4 7 7 9 7 4 4 4 3 4 4 4 4 7 7 6 7 6 6 5 5 6 7 13 13 11 10 10 8 6 7 9 13 7 10 9 6 10 8
6 2 1 1 4 4 5 6 4 6 3 1 5 8 6 6 4 3 4 3 3 4 4 6 6 6 8 6 7 7 7 7 8 10 14 10 7 9 10 7 9 8 8 11 9 7 10 9 10
4 3 3 2 4 4 6 1 5 7 4 3 7 7 7 6 4 3 3 3 2 3 4 6 7 7 7 9 7 8 8 8 9 10 12 10 9 9 9 9 9 9 9 10 10 10 11 12 12
3 4 3 1 2 3 2 1 1 2 4 5 7 7 5 6 5 3 2 2 2 3 4 4 7 8 8 8 10 8 7 8 9 9 11 12 9 9 10 10 10 10 10 10 8 10 10 10 10
4 4 2 1 0 2 0 5 8 2 4 7 6 5 5 5 4 4 3 2 1 2 2 4 6 7 9 9 8 7 7 8 8 8 11 13 12 11 11 9 10 11 11 13 10 11 10 10 10
5 5 2 1 2 2 2 9 2 2 7 8 7 6 6 5 5 4 4 3 3 3 4 4 5 7 9 9 8 7 8 7 8 8 9 13 13 13 10 9 10 11 10 10 10 10 10 10 10
6 3 3 5 3 2 3 7 1 3 5 7 8 8 7 6 5 5 5 5 3 3 4 5 5 6 7 8 7 8 9 8 8 8 8 12 12 13 10 9 10 12 10 11 10 10 11 11 9
6 4 3 3 2 1 1 14 7 4 7 12 10 10 10 10 10 7 7 5 4 3 4 4 4 4 4 4 5 6 7 8 7 8 9 11 10 12 10 9 11 11 10 11 11 12 11 11 9
8 4 3 2 1 3 6 10 16 7 7 12 14 14 15 12 5 6 6 6 5 4 4 3 4 3 2 2 2 3 4 5 7 7 12 12 11 12 12 9 11 11 12 12 14 10 13 13 13
4 4 4 2 2 3 4 13 12 8 10 13 18 15 14 9 9 8 8 6 6 5 4 4 4 4 3 3 2 3 2 3 4 6 9 12 12 13 11 11 11 12 10 14 15 15 8 9 13
3 5 4 3 2 1 5 9 6 6 6 5 3 3 9 14 14 12 10 8 5 5 4 4 4 4 4 4 3 4 3 2 3 7 7 10 11 12 12 12 11 12 11 10 12 12 13 8 9
4 4 5 7 4 3 3 6 7 6 10 6 3 7 9 13 13 12 12 9 8 7 5 5 4 5 5 6 3 5 3 2 3 4 4 7 11 12 12 11 12 12 10 12 10 10 10 9 10
3 3 5 4 5 4 3 3 10 5 7 5 6 5 7 12 16 17 16 12 8 7 6 5 6 6 5 7 6 6 8 5 3 3 5 8 9 11 11 11 11 11 8 11 12 11 12 10 9
8 7 7 5 3 2 2 4 8 2 1 6 4 8 5 8 9 11 9 10 8 7 6 6 6 6 5 7 5 6 10 7 5 5 5 6 6 7 10 10 10 9 9 10 9 10 13 10 10
1 5 2 5 3 4 2 3 12 4 6 2 8 9 2 4 7 10 12 11 11 10 9 7 7 7 6 7 6 5 9 7 7 5 5 6 5 6 8 9 10 8 8 9 9 10 11 11 10
4 4 7 8 4 3 3 6 6 4 3 2 3 3 4 5 4 7 11 11 11 11 10 8 8 8 7 7 8 6 7 5 4 5 5 5 5 5 6 7 8 9 8 8 9 8 8 10 9
4 4 2 8 4 4 3 7 5 2 5 5 5 2 3 6 8 9 8 10 11 11 10 9 9 7 7 8 8 7 7 8 6 6 5 4 4 5 6 7 8 9 9 9 9 8 9 9 10
0 3 4 3 3 3 4 6 5 3 5 7 5 0 5 6 7 10 12 12 9 9 8 8 8 9 8 8 7 8 8 8 7 7 7 6 5 5 6 7 7 9 9 9 9 9 9 10 8
1 1 4 3 3 5 3 7 6 5 0 2 5 4 7 9 10 10 11 11 11 9 8 8 8 8 8 8 7 8 7 8 7 7 6 6 6 5 5 6 6 8 9 9 8 10 10 11 11
1 3 5 5 5 1 2 8 4 4 1 1 5 6 6 7 7 7 9 10 10 11 10 11 9 9 7 7 9 8 7 7 7 7 6 6 7 5 5 4 6 6 8 8 9 9 8 11 11
Wind_Direction
337 357 65 42 62 68 87 189 15 123 124 327 332 53 107 59 45 122 133 39 32 23 3 357 358 355 356 357 358 359 352 354 355 350 351 350 349 345 343 339 337 334 330 326 323 318 316 321 323
327 239 49 80 81 70 187 281 139 65 131 122 60 56 36 81 75 103 104 32 42 19 8 355 2 360 3 2 6 358 358 359 356 353 352 352 349 349 344 341 340 334 331 328 327 320 325 320 332
209 31 76 84 95 126 159 179 140 120 109 178 121 53 75 91 74 80 47 42 38 23 12 353 2 4 5 7 6 2 358 1 359 356 356 355 354 354 350 346 344 340 336 331 327 324 320 318 317
91 19 47 75 72 288 171 172 134 140 189 65 111 83 84 51 81 89 87 48 46 23 11 359 8 6 12 8 5 358 356 0 355 355 355 354 355 354 350 349 348 345 337 331 327 324 320 318 312
35 61 64 80 113 261 254 172 149 151 110 74 297 147 122 59 99 83 63 48 38 20 13 7 11 11 12 14 5 5 5 2 0 358 356 358 357 355 352 353 352 346 342 339 332 330 328 321 313
50 92 62 121 209 291 150 179 109 49 56 135 76 116 155 117 129 96 68 54 38 28 15 13 7 5 11 7 5 4 7 9 6 10 10 6 6 3 1 359 353 348 346 343 338 331 324 318 308
107 79 134 128 162 201 203 159 161 153 143 176 137 135 151 160 138 106 81 54 41 32 22 13 4 0 359 352 10 12 18 20 18 14 11 8 8 8 2 0 354 356 353 348 344 339 330 322 316
102 91 108 175 184 211 178 125 94 138 160 116 310 181 209 174 150 133 77 50 37 30 23 11 8 2 349 353 13 21 18 20 20 14 10 10 9 3 360 0 356 354 355 353 348 347 344 336 328
127 68 143 197 160 204 165 144 85 104 113 78 39 111 99 120 130 79 23 16 18 25 16 8 1 359 0 17 18 19 26 24 19 12 10 13 12 0 1 351 347 353 350 344 342 338 336 332 326
77 104 205 180 183 169 181 164 164 143 113 206 89 77 113 107 110 98 46 19 20 14 4 3 357 5 10 26 22 21 25 19 17 14 14 15 7 357 346 330 347 347 340 334 340 337 338 336 330
50 140 151 153 185 129 155 122 141 128 234 212 197 176 170 142 111 95 67 44 14 352 359 359 2 13 23 29 26 21 23 18 18 19 16 7 5 357 341 340 352 348 343 342 338 330 339 338 329
84 75 80 131 122 117 164 122 180 189 218 77 204 155 153 150 148 128 73 48 14 8 357 2 13 25 28 36 38 31 27 22 26 22 16 8 3 355 354 357 355 351 343 342 348 346 353 351 341
82 149 63 70 112 94 127 133 234 240 212 97 123 134 149 153 148 107 97 64 21 17 6 15 25 31 34 43 39 37 31 28 27 22 14 9 6 359 357 1 359 358 353 356 354 355 358 1 359
96 80 82 60 115 110 142 214 49 333 113 119 146 157 155 160 164 129 107 73 31 26 26 24 41 41 44 44 43 36 33 29 33 27 16 12 13 7 10 5 4 4 357 356 356 358 3 4 1
109 82 83 62 91 65 284 282 235 138 129 151 165 163 171 188 165 161 131 120 37 51 36 40 67 49 54 52 47 42 39 37 35 26 20 16 19 12 14 12 8 2 2 357 1 8 12 14 13
69 54 82 302 137 7 90 268 23 145 149 187 191 201 201 197 186 158 152 143 112 101 73 65 66 66 61 60 54 48 37 39 35 28 22 19 19 18 21 20 12 4 12 11 6 7 12 12 14
12 179 198 310 204 115 142 265 133 144 178 218 218 215 213 205 187 180 170 159 138 116 105 87 78 85 80 71 66 55 43 39 31 32 26 21 22 22 26 25 18 12 20 22 13 16 17 14 4
184 201 231 244 201 74 191 267 258 199 196 227 225 221 218 208 203 181 175 168 145 107 94 96 97 95 92 83 72 54 45 39 28 31 30 23 25 24 26 26 25 23 28 25 17 19 22 23 359
131 156 183 169 149 176 236 271 278 218 222 233 229 219 216 209 183 168 176 167 143 109 100 87 110 76 131 86 37 46 37 25 30 28 26 25 27 25 28 31 27 26 34 28 19 10 18 21 7
133 139 193 118 108 172 337 280 261 233 229 214 223 218 208 170 163 174 177 178 174 144 128 108 92 74 85 95 101 95 89 51 34 24 28 25 28 28 32 34 36 31 33 36 29 22 21 23 22
171 169 172 163 125 114 326 293 316 275 265 249 329 251 195 188 175 178 176 183 166 156 147 125 111 98 81 106 123 102 88 47 11 23 29 21 28 34 32 37 43 39 36 38 37 28 33 30 25
189 188 129 127 102 239 14 281 301 279 290 10 330 208 189 173 176 173 173 174 175 166 150 134 118 102 86 92 96 95 100 110 46 33 22 29 31 34 36 37 45 44 41 46 39 34 37 40 39
187 101 104 96 100 74 338 57 269 0 315 5 348 323 210 188 179 177 178 170 170 152 150 139 122 103 96 92 98 111 106 98 77 55 48 44 37 34 35 41 46 47 43 50 48 41 39 36 46
152 79 52 53 93 31 286 130 282 236 320 321 324 313 252 185 179 171 159 144 142 140 143 141 135 112 106 104 113 121 113 107 98 72 61 50 41 35 33 44 47 47 45 45 50 46 49 42 49
132 103 351 357 24 212 169 74 248 328 301 279 311 321 243 172 155 156 157 159 156 160 161 155 147 127 121 112 106 113 107 103 96 82 71 62 49 40 29 45 50 46 44 50 53 51 50 44 48
176 173 162 197 185 177 122 228 256 274 327 57 17 7 107 134 148 172 172 169 166 167 167 161 149 143 138 124 112 98 92 88 75 77 81 77 73 55 34 48 56 54 51 48 53 55 51 50 50
186 188 134 101 21 76 240 279 315 319 39 25 25 53 171 177 169 170 174 175 172 173 172 164 154 145 144 134 125 120 119 116 117 104 79 51 60 70 47 45 55 59 57 52 50 56 49 50 49
193 156 80 359 149 237 290 284 234 263 337 1 3 276 229 211 192 181 175 173 177 173 166 157 158 153 151 144 142 135 134 125 126 118 106 97 79 66 61 57 57 63 60 51 52 59 47 56 48
147 185 54 107 139 157 148 259 206 202 23 333 314 216 220 215 208 197 186 176 170 162 161 161 156 150 158 150 142 141 140 133 127 118 113 111 104 89 65 58 66 72 67 55 54 58 51 56 51
261 225 176 135 197 92 110 275 181 217 108 228 272 247 237 226 210 190 182 171 170 171 166 170 166 161 165 156 146 149 145 138 132 129 128 125 111 99 90 74 77 74 76 65 61 60 51 56 51